User: anonymous   Login
Location: Unspecified
(0.0000°N, 0.0000°E)
Time: 00:56:44
(UTC+00:00)
Language:

OBJECT V - Orbit

View from above orbital plane
View from above orbital plane
View from above satellite
View from above satellite

Ground track
Ground track

The orbit data is extracted from the following two-line orbital elements,

1 42844U 17042V   17324.55780239 +.00000825 +00000-0 +87996-4 0  9990
2 42844 097.6057 229.7053 0013140 160.2355 199.9376 14.91378613019251
Epoch (UTC): 20 November 2017 13:23:14
Eccentricity: 0.0013140
inclination: 97.6057°
perigee height: 584 km
apogee height: 603 km
right ascension of ascending node: 229.7053°
argument of perigee: 160.2355°
revolutions per day: 14.91378613
mean anomaly at epoch: 199.9376°
orbit number at epoch: 1925

The dashed part of the orbit path shows where the satellite is in the earth's shadow,  

DLR